Location: Newark
(15.4608°S, 41.1635°W)
Time: 23:16:46
(UTC+00:00)

Transit 4A - Pass Details

Date: 10 March 2021
Orbit: 869 x 975 km, 66.8° (Epoch: 16 April)

Event Time Altitude Azimuth Distance (km) Brightness Sun altitude
Rises 08:19:50 0° 179° (S) 3,635 11.1 -7.4°
Reaches altitude 10° 08:23:04 10° 163° (SSE) 2,700 10.6 -6.6°
Maximum altitude 08:27:40 21° 116° (ESE) 2,035 10.8 -5.5°
Drops below altitude 10° 08:32:17 10° 69° (ENE) 2,715 11.6 -4.4°
Sets 08:35:31 0° 53° (NE) 3,659 11.8 -3.6°
